Regional Weather Roundup
Issued by NWS Wakefield, VA

Home | Current Version | Previous Version | Text Only | Print | Product List | Glossary On
Versions: 1 2 3 4 5 6 7 8 9 10 11 12 13 14 15 16 17 18 19 20 21 22 23 24 25 26 27 28 29 30 31 32 33 34 35 36 37 38 39 40 41 42 43 44 45 46 47 48 49 50
000
ASUS41 KAKQ 071815
RWRAKQ

REGIONAL WEATHER ROUNDUP
NATIONAL WEATHER SERVICE WAKEFIELD VA
200 PM EDT TUE JUL 07 2015

Note: "fair" indicates few or no clouds below 12,000 feet with no
significant weather and/or obstructions to visibility. * = Denotes
station may not report precipitation (e.g., rain,snow,etc.),
thunder or fog.

VAZ042-051-052>054-056-071900-
NORTHERN VIRGINIA

CITY           SKY/WX    TMP DP  RH WIND       PRES   REMARKS
WASH NATIONAL  MOSUNNY   87  72  60 S9        30.03S
DULLES         MOSUNNY   86  64  47 SW5       30.04F
FORT BELVOIR   MOSUNNY   87  71  59 VRB7      30.03F
QUANTICO       MOSUNNY   84  73  69 S9        30.04F
FREDERICKSBRG* MOSUNNY   90  68  47 SW9       30.04F
STAFFORD*      SUNNY     86  69  57 SW5       30.08F
WARRENTON      SUNNY     88  72  58 S6        30.05F
CULPEPER*      SUNNY     86  67  54 SW6       30.05F
MANASSAS*      SUNNY     88  70  55 SW5       30.05F
LEESBURG*      PTSUNNY   88  72  58 SW8       30.05F
WINCHESTER     SUNNY     88  68  51 SW6       30.05F
FRONT ROYAL*   FAIR      84  70  61 S6        30.05S
LURAY*         FAIR      88  68  51 S7        30.06F
$$

VAZ048-049-060>072-079>083-071900-
CENTRAL AND SOUTH CENTRAL VIRGINIA

CITY           SKY/WX    TMP DP  RH WIND       PRES   REMARKS
RICHMOND       MOSUNNY   89  69  51 SW10      30.07S
CHESTERFIELD*  NOT AVBL
PETERSBURG*    MOSUNNY   89  75  63 S3        30.09S HX  98
HANOVER        MOSUNNY   88  69  53 SW7G18    30.08F
TAPPAHANNOCK*  SUNNY     88  66  48 S7        30.07S
QUINTON*       NOT AVBL
CHARLOTTSVILLE MOSUNNY   87  66  49 VRB5      30.06F
GORDONSVILLE*  FAIR      86  68  54 SW7       30.05F
ORANGE*        SUNNY     88  66  48 SW8       30.07F
LOUISA*        MOSUNNY   88  70  55 S6        30.06F
BUMPASS*       FAIR      86  70  58 SW7       30.07S
FARMVILLE*     MOSUNNY   87  66  48 W5        30.07F
CREWE*         FAIR      87  69  54 SW7       30.09F
FORT PICKETT*  FAIR      87  70  56 W9        30.10S
CHASE CITY*    FAIR      89  72  57 SW3       30.10F HX  96
CLARKSVILLE*   FAIR      88  73  62 SW6       30.10S HX  96
SOUTH HILL*    MOSUNNY   86  71  61 SW6       30.16S
LAWRENCEVILLE* NOT AVBL
EMPORIA*         N/A     86  72  62 S5        30.10F
$$

VAZ088>098-071900-
SOUTHEAST VIRGINIA

CITY           SKY/WX    TMP DP  RH WIND       PRES   REMARKS
NORFOLK        PTSUNNY   89  72  56 SW12      30.07F HX  96
VIRGINIA BEACH MOSUNNY   92  73  53 SW9       30.07F HX 100
NORFOLK NAVAL  PTSUNNY   88  73  61 S13       30.08F HX  95
WEST POINT*    SUNNY     90  68  48 SW9       30.08S
SALUDA*        FAIR      86  71  60 SW7G16    30.06S
NEWPORT NEWS   MOSUNNY   88  74  63 SW12      30.07F HX  96
LANGLEY AFB    MOSUNNY   87  74  64 SW12      30.06S HX  96
FORT EUSTIS    SUNNY     88  85  92 VRB7      30.06F HX 113
WILLIAMSBURG*  SUNNY     91  73  55 SW9       30.08S HX 100
HR EXEC AP*    MOCLDY    90  75  62 SW8G16    30.09S HX 100
FRANKLIN*      MOSUNNY   87  75  67 W7        30.08F HX  96
WAKEFIELD      SUNNY     88  72  58 SW8       30.08F
$$

VAZ020-022-025-037-045-071900-
WEST CENTRAL AND SOUTHWEST VIRGINIA

CITY           SKY/WX    TMP DP  RH WIND       PRES   REMARKS
STAUNTON*      MOSUNNY   88  66  48 SW14      30.11F
WAYNESBORO*    FAIR      82  67  59 SW6       30.12F
HOT SPRINGS VA MOSUNNY   76  62  62 W12       30.23F
LYNCHBURG      MOSUNNY   84  68  58 SW10      30.12F
DANVILLE       MOSUNNY   86  68  54 W7        30.11F
SOUTH BOSTON*  FAIR      87  69  55 MISG      30.10F
MARTINSVILLE   MOSUNNY   87  66  49 S3        30.15F
ROANOKE        MOSUNNY   86  66  51 W12       30.13F
BLACKSBURG     SUNNY     82  67  61 SW7       30.20F
DUBLIN*        MOSUNNY   83  65  54 W8        30.18F
MARION*        MOSUNNY   80  65  60 SW9       30.22F
HILLSVILLE*    SUNNY     79  62  55 SW9       30.20F
RICHLANDS*     FAIR      78  68  72 SW8       30.20F
WISE*          MOSUNNY   79  63  57 SW9G20    30.20F
ABINGDON*      MOSUNNY   82  69  64 W12       30.18F
$$

MDZ021>025-VAZ099-100-071900-
SOUTHERN MARYLAND AND THE DELMARVA PENINSULA

CITY           SKY/WX    TMP DP  RH WIND       PRES   REMARKS
PATUXENT RIVER MOSUNNY   86  72  62 SW10      30.04S
BAY BRIDGE APT   N/A     86  70  58 SE10      30.03S
LEONARDTOWN    PTSUNNY   86  70  58 SW8       30.06S
DOVER          MOSUNNY   87  73  63 SW10      30.01F
GEORGETOWN     SUNNY     87  71  58 SW15      30.03F
EASTON         MOSUNNY   88  73  62 SW8       30.07F HX  96
CAMBRIDGE      SUNNY     86  68  54 SW7       30.04S
SALISBURY      SUNNY     86  71  60 SW10      30.04F
OCEAN CITY     SUNNY     84  74  71 S9        30.04F
WALLOPS ISLAND MOSUNNY   85  76  74 S16       30.06F
ACCOMACK*        N/A     86  73  66 SW12      30.07
$$

NCZ012>017-030>032-071900-
NORTH CENTRAL AND EASTERN NORTH CAROLINA

CITY           SKY/WX    TMP DP  RH WIND       PRES   REMARKS
ROANOKE RAPIDS FAIR      86  73  66 SW9       30.09F
RALEIGH        MOSUNNY   89  72  56 SW9       30.11F HX  96
ELIZABETH CITY MOSUNNY   87  73  62 SW14      30.09F
AHOSKIE*       SUNNY     86  74  66 S5        30.09F
EDENTON*         N/A     88  73  61 SW10      30.10F HX  96
CURRITUCK*     SUNNY     89  70  53 S6        30.10F
KILL DEVIL HLS SUNNY     93  68  43 SW5       30.09F HX  97
MANTEO         SUNNY     88  72  58 S13       30.11F
CAPE HATTERAS  SUNNY     83  74  74 SW14      30.14F
TARBORO*         N/A     92  71  51 S8        30.10F HX  98
GOLDSBORO      SUNNY     91  72  53 S9        30.08F HX  98
WASHINGTON     MOSUNNY   89  71  55 SW8       30.11F HX  95
GREENVILLE     MOSUNNY   90  70  51 SW7       30.11F HX  95
NEW BERN       MOSUNNY   91  71  51 SW7       30.12F HX  97
WILMINGTON     MOSUNNY   90  70  51 SW10G21   30.12F HX  95
$$

VAZ048-071900-
ELSEWHERE

CITY           SKY/WX    TMP DP  RH WIND       PRES   REMARKS
HARRISBURG PA  MOSUNNY   83  68  60 W7        30.00F
BALTIMORE      MOSUNNY   86  69  56 W8        30.02S
ANNAPOLIS      MOSUNNY   83  74  74 SE15      30.02S
ANDREWS AFB    SUNNY     86  79  78 S9        30.03F HX 100
PHILADELPHIA   MOSUNNY   89  69  51 SW15      30.00F
HENDERSON NC   MOSUNNY   87  65  49 S3        30.11F
GREENSBORO     MOSUNNY   87  65  47 SW8       30.12F
ROCKY MOUNT    MOSUNNY   92  71  50 S14G21    30.10F HX  98
$$

VAZ100-071900-
MARINE

STATION/POSITION TIME  TEMP    WIND        PRES    WAVE   SWELL
                       AIR SEA DIR/SP/G            HT/PER HT/PER
                 (UTC) (F)     (DEG/KT/KT) (MB)    (FT/S) (FT/S)
BRANDYWINE LGT   1700   78 75  160/  9/  9 1017.3F
CAPE MAY NJ      1700   83 80  240/  6/  7 1016.9F
LEWES DE         1700   87 74  220/  7/ 10 1016.9
15NM E FENWICK I 1750   77 75              1017.0F   3/ 5
OCEAN-CITY-INLET 1700   78 74  190/ 10/ 13 1017.4F
WACHAPREAGUE VA  1700   83 82  200/ 11/ 12 1018.3F
THOMAS POINT MD  1800   80 79  170/ 11/ 12 1017.3
GOOSES REEF MD   1800   82 81  180/  6/  8 1018.1F
COVE POINT MD    1700   84     240/  9/ 12 1017.9F
SOLOMONS ISLAND  1700      80                N/A
BISHOPS HEAD MD  1700   81     180/ 11/ 12 1017.5F
PINEY POINT MD   1700          270/  5/  8   N/A
CAMBRIDGE MD     1700   83 80  280/  5/  7 1017.0F
LEWISETTA VA     1700   85 81  230/  9/ 12 1017.2F
RAPPAHANNOCK LGT 1700          190/ 15/ 16 1018.8F
STINGRAY PT      1800   84 82  220/ 12/ 14 1017.9F   1/ 3
YORK RVR RNG VA  1700   83     210/  8/  9 1017.9
YORKTOWN VA      1700   84 80  250/  9/ 14 1018.2
JAMESTOWN VA     1800   85 83  230/  8/ 10   N/A
DOMINION TERM VA 1700   83     230/  9/ 10 1018.5F
KIPTOPEKE VA     1700      85  230/  6/  8   N/A
CHES BAY BRIDGE  1700   84 76  200/  8/ 10 1018.1F
CAPE HENRY VA    1700   86     220/  6/ 13   N/A
CHESAPEAKE LGHT  1700   80     180/ 13/ 15 1019.5F
WILLOUBY STN VA  1700   82     260/  9/  9 1019.4F
CAPE HENRY BUOY  1728      80                N/A     3/ 9
1ST LANDING BUOY 1800      81              1018.0F
CAPE CHARLES BUO 1726      79                N/A     2/ 9   2/ 9
OFFSHORE WE BUOY 1711      78                N/A     3/ 8   2/ 8
64NM E OF VA BCH 1750   78 77  190/ 12/ 14 1019.2F   3/ 9   2/ 9
DUCK PIER NC     1700   84 67  220/  8/ 11   N/A
44100 DUCK FRF   1724      80                N/A     2/14   2/14
44056 DUCK FRF   1711      77                N/A     2/13   2/13
OREGON INLET NC  1700   81 82  180/ 16/ 18 1020.2F
HATTERAS NC      1712   82 81  200/  9/ 13 1020.5F
DIAMOND SHLS NC  1750   81 83  230/ 16/ 17 1020.5F   3/ 8   2/ 8
CAPE LOOKOUT NC  1800   82     200/ 12/ 15 1020.5F
$$


USA.gov is the U.S. government's official web portal to all federal, state and local government web resources and services.